Regional Weather Roundup
Issued by NWS

Home | Current Version | Previous Version | Text Only | Print | Product List | Glossary Off
Versions: 1 2 3 4 5 6 7 8 9 10 11 12 13 14 15 16 17 18 19 20 21 22 23 24 25 26 27 28 29 30 31 32 33 34 35 36 37 38 39 40 41 42 43 44 45 46 47 48 49 50

442
ASUS44 KLIX 240205
RWRLA
LOUISIANA WEATHER ROUNDUP
NATIONAL WEATHER SERVICE NEW ORLEANS LA
800 PM CST SUN NOV 23 2014

NOTE: "FAIR" INDICATES FEW OR NO CLOUDS BELOW 12,000 FEET WITH NO
      SIGNIFICANT WEATHER AND/OR OBSTRUCTIONS TO VISIBILITY.
      SKY/WX - SKY CONDITION AND SIGNIFICANT WEATHER.
      TMP - AIR TEMPERATURE.    DP   - DEWPOINT TEMPERATURE.
      RH  - RELATIVE HUMIDITY.  PRES - PRESSURE.
      HX  - HEAT INDEX.         WCI  - WIND CHILL INDEX.

*  THESE STATIONS ARE NOT NWS OR FAA STATIONS AND ARE NOT UNDER
   NWS QUALITY CONTROL.

LAZ040-048-061>063-065-066-069-240300-
SOUTHEAST LOUISIANA

CITY           SKY/WX    TMP DP  RH WIND       PRES   REMARKS
N.O. AUDUBON     N/A     67  67 100 MISG        N/A
N.O. INTL ARPT PTCLDY    67  63  87 S12       29.70R
N.O. LAKEFRONT MOCLDY    69  65  86 S13       29.71R
N.O. DOWNTOWN* MOCLDY    70  63  78 S9        29.71R
SLIDELL        PTCLDY    67  63  87 S8        29.70R
BATON ROUGE    MOCLDY    70  64  81 SW17G30   29.66R
BOOTHVILLE     PTCLDY    66  66 100 S8        29.75R
BELLE CHASSE   CLOUDY    69  66  90 S9        29.70R
BOGALUSA*        N/A     65  59  79 S9        29.70R
NEW ROADS*     FAIR      66  63  91 S9        29.66R
GONZALES*      FAIR      68  68 100 S7        29.69R
HAMMOND*       CLEAR     66  61  82 S7        29.70R
HOUMA*         CLEAR     68  67  94 S9        29.71R
PORT FOURCHON* PTCLDY    70  68  94 S8        29.76R FOG

$$

LAZ041-044-053-054-240300-
SOUTHWEST LOUISIANA

CITY           SKY/WX    TMP DP  RH WIND       PRES   REMARKS
LAKE CHARLES   CLEAR     67  63  87 SW9G18    29.64R
LAFAYETTE      CLOUDY    69  66  90 SW10      29.67R
PATTERSON      PTCLDY    68  66  94 SW12      29.72R
SALT POINT       N/A     69  64  84 VRB7      29.69R
NEW IBERIA     CLOUDY    66  64  93 SW9       29.68R FOG
CHENAULT AIRPK NOT AVBL

$$

LAZ027-028-240300-
CENTRAL LOUISIANA

CITY           SKY/WX    TMP DP  RH WIND       PRES   REMARKS
FORT POLK      CLEAR     63  59  87 S9        29.61R
ALEXANDRIA INT CLEAR     64  60  87 S12       29.59R
ALEXANDRIA     CLEAR     65  60  84 SW10      29.61R

$$

LAZ001-002-240300-
NORTHWEST LOUISIANA

CITY           SKY/WX    TMP DP  RH WIND       PRES   REMARKS
SHREVEPORT     CLEAR     65  55  70 SW9       29.52R
BARKSDALE AFB  CLEAR     65  54  68 S9        29.52R
DTN SHREVEPORT CLEAR     66  53  63 S13       29.51R

$$

LAZ014-016-240300-
NORTHEAST LOUISIANA

CITY           SKY/WX    TMP DP  RH WIND       PRES   REMARKS
MONROE         CLEAR     64  59  83 S14G22    29.54R
TALLULAH       CLEAR     65  55  70 S10       29.57R

$$




USA.gov is the U.S. government's official web portal to all federal, state and local government web resources and services.